433  
ASUS44 KMEG 201910  
RWRMEG  
MEMPHIS CWA HOURLY WEATHER ROUNDUP  
NATIONAL WEATHER SERVICE MEMPHIS TN  
200 PM CDT WED JUN 20 2018  
   
..WEST TENNESSEE
 
 
 
CITY SKY/WX TMP DP RH WIND PRES REMARKS
 
MEMPHIS INTL CLOUDY 88 73 61 SW10 29.94F HX 95  
NWS MEMPHIS N/A 87 N/A N/A MISG N/A  
JACKSON CLOUDY 82 74 76 S6 29.97F  
COVINGTON PTSUNNY 84 73 70 SW3 29.95F HX 91  
SOMERVILLE MOSUNNY 82 75 78 SE5 29.95F  
BOLIVAR MOSUNNY 81 75 83 CALM 29.96F  
LEXINGTON MOSUNNY 79 72 78 VRB5 29.98S  
SELMER MOSUNNY 82 72 69 CALM 29.97F  
DYERSBURG FAIR 84 74 71 VRB7 29.95F HX 91  
PARIS PTSUNNY 82 72 69 SW13 29.95F  
HUNTINGDON CLOUDY 81 70 69 SW7 29.95F  
 
   
..EASTERN ARKANSAS
 
 
 
CITY SKY/WX TMP DP RH WIND PRES REMARKS
 
JONESBORO PTSUNNY 84 73 69 SW14 29.92F HX 90  
WEST MEMPHIS PTSUNNY 88 73 61 S13 29.92F HX 95  
BATESVILLE CLOUDY 81 74 79 S6 29.92F  
NEWPORT FAIR 85 73 67 S13 29.91F HX 91  
WALNUT RIDGE N/A 85 73 67 SW8 29.91F HX 91  
BLYTHEVILLE CLOUDY 83 68 60 SW9G20 29.94F  
NW BLYTHEVILLE PTSUNNY 84 66 54 SW14G23 29.93  
SEARCY HVY RAIN 73 73 100 SW7G21 29.94S FOG  
STUTTGART FAIR 83 75 77 SW8 29.93F HX 90  
PINE BLUFF LGT RAIN 79 75 87 S9 29.94F  
MONTICELLO LGT RAIN 80 74 81 SW7 29.95S  
 
   
..NORTH MISSISSIPPI
 
 
 
CITY SKY/WX TMP DP RH WIND PRES REMARKS
 
TUPELO FAIR 90 70 51 CALM 29.95F HX 95  
OXFORD FAIR 84 73 70 VRB5 29.97F HX 91  
BATESVILLE FAIR 84 73 70 SW6 29.95S HX 91  
OLIVE BRANCH CLOUDY 84 77 79 S6 29.94F HX 94  
TUNICA N/A 82 72 69 S7 29.95F  
CLARKSDALE SUNNY 84 81 89 SW7 29.95F HX 98  
CORINTH FAIR 84 70 61 SE6 29.96F  
GREENWOOD FAIR 87 75 67 SW6 29.94F HX 96  
COLUMBUS LGT RAIN 82 73 74 S13 29.95F  
STARKVILLE PTSUNNY 88 73 62 CALM 29.95F HX 96  
GOLDEN TRIANGL FAIR 83 71 67 E13 29.95F  
 
   
..SOUTHEAST MISSOURI
 
 
 
CITY SKY/WX TMP DP RH WIND PRES REMARKS
 
KENNETT FAIR 86 72 62 SW15G24 29.90F HAZE HX 92  
MALDEN FAIR 88 70 55 SW16 29.91F HX 92  
WEST PLAINS LGT RAIN 70 67 90 SW13G25 29.97R  
POPLAR BLUFF FAIR 88 71 57 S15G25 29.89F HX 94  
CAPE GIRARDEAU FAIR 88 70 55 SW13 29.88F THUNDER HX 93  
 
   
..NORTHWEST ALABAMA
 
 
 
CITY SKY/WX TMP DP RH WIND PRES REMARKS
 
MUSCLE SHOALS FAIR 86 70 58 NW3 29.99F HX 90  
 
   
..MIDDLE TENNESSEE
 
 
 
CITY SKY/WX TMP DP RH WIND PRES REMARKS
 
NASHVILLE MOSUNNY 84 68 58 W14 29.97S  
CLARKSVILLE FAIR 85 67 54 SW9 29.93F  
DICKSON CLOUDY 79 70 73 W14 29.97F  
COLUMBIA PTSUNNY 82 72 69 SW12 29.98S  
LEWISBURG MOCLDY 84 70 61 SW10 29.98F  
 
   
..WESTERN KENTUCKY
 
 
 
CITY SKY/WX TMP DP RH WIND PRES REMARKS
 
PADUCAH PTSUNNY 79 72 79 S6 29.90S  
FORT CAMPBELL FAIR 87 70 57 SW15 29.93F HX 91  
 
   
..CENTRAL ARKANSAS
 
 
 
CITY SKY/WX TMP DP RH WIND PRES REMARKS
 
LITTLE ROCK LGT RAIN 80 75 84 SW5 29.93F  
 
SKY/WX REPORTED AS FAIR MEANS FEW OR NO CLOUDS BELOW  
12 THOUSAND FEET.  
 
 
 
CLICK HERE TO GO TO PREVIOUS BULLETINS.

The Nexlab TN Page
The Nexlab MS Page
The Nexlab AR Page Main Text Page